Theta_e
330 332 331 336 344 344 345 346 346 347 349 349 348 348 348 349 353 359 358 352 350 349 354 351 337 332 328 332 337 341 345 345 344 344 341 340 338 335 334 339 343 344 340 339 338 337 336 335 335
329 331 332 336 340 341 342 340 341 347 349 349 347 347 347 350 352 358 358 353 349 351 353 353 338 332 328 330 332 336 341 344 345 345 343 342 340 338 336 335 341 342 337 337 336 336 335 333 330
329 327 332 336 338 340 342 340 342 347 348 348 348 347 348 353 356 358 357 353 350 351 352 355 339 334 329 328 328 330 335 340 344 343 342 340 338 335 334 336 341 340 339 341 341 338 337 338 337
328 327 330 337 338 339 340 343 340 346 346 347 348 350 353 354 355 356 356 352 351 351 351 351 340 336 331 329 328 328 330 333 335 335 334 334 334 334 333 337 340 340 341 341 339 338 340 340 338
325 330 334 335 336 336 336 341 342 344 347 347 347 352 357 357 358 356 356 352 349 347 350 352 341 339 333 332 329 328 327 330 332 333 332 330 332 334 335 337 339 339 339 341 342 341 338 335 333
330 331 336 337 336 335 335 335 346 347 348 348 346 350 360 353 358 355 352 348 345 346 348 352 345 342 337 334 332 330 328 328 331 334 334 332 331 332 334 336 339 343 343 340 337 336 335 335 334
331 333 335 336 336 335 335 334 337 346 347 347 344 347 353 357 356 350 347 346 344 345 347 349 351 350 342 338 335 334 331 330 331 334 336 336 337 338 340 343 344 341 339 338 337 337 336 335 335
330 332 334 335 337 337 334 335 336 342 351 343 344 349 358 356 353 348 345 344 343 344 345 347 349 349 350 349 338 336 336 334 333 334 335 336 337 337 339 341 340 340 338 337 337 335 335 335 339
329 330 331 334 336 336 334 335 342 343 349 345 349 350 353 353 350 346 344 343 345 344 345 347 347 350 348 347 350 340 337 337 337 339 337 339 344 346 345 343 344 340 337 337 336 334 333 336 341
328 329 330 333 335 336 335 334 335 345 346 344 345 345 351 352 351 348 346 344 343 344 345 346 349 347 347 348 350 349 347 345 346 346 349 346 346 346 345 344 342 334 333 334 333 333 335 342 346
325 328 329 332 334 334 334 334 333 336 337 336 334 334 335 348 354 354 349 344 341 343 346 346 349 348 345 344 347 345 345 346 347 348 349 348 347 346 343 342 342 341 339 339 341 341 345 347 346
324 326 329 331 333 333 334 334 333 334 335 334 334 331 331 333 347 355 355 347 342 342 346 348 349 350 349 347 345 344 345 347 347 347 349 349 348 345 342 341 341 341 342 344 345 346 348 347 347
323 325 328 329 330 331 331 333 334 334 333 331 333 332 330 329 340 338 352 356 350 345 345 348 349 349 350 346 346 346 346 347 348 348 348 347 346 345 342 343 346 347 347 348 347 348 346 342 331
323 323 325 327 329 329 330 331 332 331 331 332 332 333 334 336 336 338 340 340 343 354 347 348 346 348 348 346 347 347 348 347 346 347 347 346 346 345 343 344 348 348 347 348 347 347 342 338 331
323 322 322 325 327 327 327 330 330 331 331 332 332 339 340 341 341 344 348 350 352 346 351 350 346 347 348 346 346 345 346 348 347 347 349 347 347 349 350 347 349 349 349 346 345 341 339 330 324
323 322 323 324 325 325 327 328 329 328 330 331 331 338 342 342 343 344 344 345 349 353 354 352 346 346 347 347 347 347 348 352 351 348 350 350 350 351 351 349 348 345 346 345 341 337 333 326 322
323 325 323 325 325 324 326 329 332 328 329 331 337 343 342 342 336 333 334 334 338 341 347 350 351 349 350 351 352 352 354 353 352 352 352 351 351 350 350 349 345 341 340 341 338 335 333 329 326
325 323 324 325 325 324 329 335 336 334 327 338 344 342 340 336 330 324 326 328 328 330 331 335 336 342 350 350 351 350 349 347 346 348 348 349 348 347 347 345 342 338 336 335 333 331 329 327 323
323 323 324 324 323 328 334 338 341 339 340 343 340 338 333 329 324 322 321 320 322 322 324 324 326 330 335 341 344 347 347 345 346 345 345 345 346 344 343 342 339 335 332 332 330 328 326 323 322
322 322 323 323 323 330 335 340 341 337 338 339 338 335 330 326 323 318 318 318 317 316 317 319 321 322 325 331 334 339 341 343 343 341 343 341 341 340 339 338 337 335 332 330 328 326 325 325 325
321 321 322 321 324 329 335 339 337 329 329 329 328 326 325 324 322 319 316 315 315 314 314 315 316 317 319 322 326 330 335 338 339 338 338 338 337 337 337 335 334 332 331 329 328 327 327 328 326
324 322 322 322 324 326 328 331 338 330 327 326 325 323 321 319 317 317 315 314 313 312 313 313 314 314 314 315 317 320 322 325 327 329 330 331 334 335 334 334 333 332 331 329 330 330 329 327 327
324 322 323 323 324 325 325 325 339 332 327 323 324 321 318 315 314 315 314 312 312 311 311 312 313 312 312 313 313 313 314 315 317 319 321 325 328 329 331 331 331 331 331 330 330 329 328 327 327
322 323 323 324 324 325 326 326 335 336 333 319 318 320 318 317 315 313 312 312 312 311 311 310 311 311 311 311 311 311 311 312 313 314 315 316 318 322 325 328 329 329 330 330 330 329 328 328 327
322 323 324 324 324 324 328 327 332 327 325 318 315 315 315 315 314 313 311 311 310 310 310 309 310 310 310 310 310 309 310 310 311 311 311 311 312 313 317 319 320 322 325 326 327 327 326 327 326
323 324 323 323 322 323 328 326 332 323 319 315 313 313 312 311 311 311 310 310 309 309 309 309 309 309 308 308 308 308 308 308 308 308 308 308 309 309 310 311 313 316 318 322 324 324 324 324 323
323 322 323 321 320 320 324 328 324 321 318 315 314 313 312 314 313 312 310 309 309 309 308 308 308 308 307 306 306 306 305 305 305 305 305 306 306 307 308 309 310 311 313 317 319 320 322 323 321
321 321 322 323 322 322 324 325 326 327 323 319 317 317 316 314 313 311 310 309 308 308 308 307 306 305 305 304 304 303 302 302 302 302 302 301 302 303 304 306 307 308 310 312 317 317 318 317 316
323 322 323 323 321 321 321 324 324 327 325 322 319 316 315 314 312 311 309 308 308 308 307 305 305 304 304 303 302 301 301 300 300 300 300 300 300 301 303 305 306 307 308 309 313 316 317 315 315
321 323 324 325 325 324 324 324 322 324 322 319 317 315 314 313 311 310 309 308 308 306 305 303 303 302 302 301 301 301 300 301 301 301 301 302 302 302 305 306 308 309 308 309 311 313 314 315 314
Wind_Speed
2 2 3 6 7 7 4 6 2 4 4 4 1 4 6 5 6 5 2 12 12 17 16 16 17 16 16 16 17 17 18 18 19 17 16 15 16 16 17 15 13 10 7 7 7 6 5 4 4
3 3 6 5 7 7 7 3 8 3 4 5 3 2 5 8 5 7 11 10 17 16 15 14 16 16 15 15 15 16 17 17 16 16 15 15 14 14 15 15 12 9 7 7 7 6 4 4 4
4 5 5 5 5 8 7 8 8 5 3 1 1 2 3 6 6 5 11 17 18 16 16 16 16 15 16 15 14 14 14 15 15 14 13 14 13 14 14 14 11 9 7 5 4 4 3 3 2
3 6 5 10 5 6 6 11 7 9 4 1 2 5 5 7 3 8 15 18 18 17 14 17 18 14 13 14 13 13 12 13 13 13 12 11 12 12 13 13 10 8 6 4 3 3 3 2 1
8 4 5 5 1 2 5 6 3 6 6 8 1 5 6 9 9 13 17 18 17 16 15 16 17 15 14 13 13 13 13 12 12 11 11 10 10 11 11 10 9 7 6 5 3 3 3 3 3
7 4 7 7 2 1 3 7 1 1 7 6 3 1 7 5 9 14 17 17 15 15 15 15 16 15 13 11 11 12 12 12 11 10 9 9 9 9 10 9 8 7 6 5 4 3 3 3 3
12 7 10 2 4 3 5 5 4 1 4 9 2 2 5 8 11 15 17 16 15 14 14 14 14 13 13 11 10 10 10 10 10 10 9 8 8 8 8 8 8 7 6 5 5 4 4 5 4
8 7 8 9 8 4 4 3 5 3 12 4 2 3 8 8 10 15 16 14 13 13 12 12 13 12 11 9 10 10 9 9 8 8 8 8 9 9 9 9 9 9 8 8 7 7 6 6 5
6 10 11 9 9 3 2 4 7 2 3 3 5 8 10 13 14 14 14 14 11 10 11 11 12 12 10 9 8 9 9 8 8 7 8 7 6 7 8 9 11 12 11 10 9 8 7 7 5
11 11 13 5 1 2 3 2 5 3 5 8 8 11 11 10 13 14 14 12 10 9 8 10 11 11 10 9 8 8 6 6 6 6 5 5 6 6 8 8 11 12 11 12 11 10 9 7 11
15 14 6 6 3 3 4 5 2 1 10 10 11 13 13 3 1 5 5 11 11 8 9 11 12 14 10 9 8 7 6 5 5 6 5 4 5 6 6 7 7 7 10 10 10 9 9 8 10
11 16 6 9 6 5 7 7 8 3 3 6 8 8 8 8 8 8 10 6 7 7 15 12 11 10 10 7 6 5 6 5 3 4 4 5 5 6 7 7 7 7 8 9 10 8 7 6 5
13 7 10 9 7 9 4 9 12 10 10 9 2 8 12 16 16 16 13 9 7 11 12 11 10 8 7 7 4 5 6 4 3 3 4 5 5 6 7 6 7 9 10 7 10 8 8 4 5
4 9 10 9 10 5 10 12 6 11 13 12 10 3 12 15 15 14 14 9 9 9 10 12 11 7 7 8 4 3 4 3 3 4 4 4 5 6 6 8 8 10 11 11 10 8 10 10 7
4 10 12 12 10 4 7 10 16 11 8 13 14 15 13 15 18 16 15 17 16 4 6 10 10 7 5 5 4 5 4 4 5 5 5 5 6 6 7 9 10 9 8 8 6 5 10 9 7
10 7 11 11 9 6 10 4 11 11 10 14 10 10 13 18 19 21 21 19 20 11 4 5 5 4 3 3 3 4 6 6 5 6 7 5 6 7 8 10 11 9 8 7 6 7 6 5 4
7 6 8 9 7 1 9 3 14 10 12 12 7 13 12 17 24 26 27 25 21 22 17 14 7 4 2 3 4 3 4 6 5 5 6 6 7 8 9 10 9 9 7 7 7 8 9 9 11
6 6 5 5 8 1 11 9 12 12 3 13 13 13 15 17 20 25 27 25 28 27 24 21 21 13 6 5 3 3 3 2 3 4 6 6 6 8 8 9 8 8 8 8 9 9 10 11 11
6 6 5 4 5 8 10 12 13 12 13 13 12 13 15 18 21 27 25 28 27 29 27 29 26 22 23 16 8 8 9 7 6 6 7 7 6 6 8 8 8 8 10 11 11 10 10 11 10
11 10 11 7 4 10 12 16 18 17 15 10 13 12 14 17 17 23 24 26 27 26 23 26 27 25 23 22 18 10 8 5 5 7 8 8 8 7 8 9 10 11 11 11 12 13 12 13 11
9 11 6 8 9 11 16 11 11 12 12 12 13 13 14 16 16 15 20 21 21 24 24 24 25 23 25 21 15 12 10 9 10 11 11 10 10 9 9 11 12 13 13 13 13 13 14 17 13
5 1 3 6 12 11 15 3 7 7 11 10 10 11 13 14 14 16 18 21 22 21 19 21 21 22 20 20 18 17 14 13 13 13 13 15 12 12 12 14 14 15 15 15 14 16 17 14 19
6 2 3 4 9 7 14 10 10 10 4 6 7 9 11 11 13 14 17 16 18 18 18 19 20 20 21 21 19 17 16 15 15 15 18 16 14 14 15 15 16 17 18 20 19 19 17 17 19
4 5 7 8 10 11 4 8 10 8 7 5 3 7 9 10 11 14 15 16 17 17 19 20 22 20 19 18 17 17 16 18 18 18 19 17 18 17 15 15 16 20 22 22 21 19 18 20 20
7 7 9 8 9 7 3 7 8 6 8 8 4 3 7 9 11 12 15 16 17 18 19 18 19 19 20 19 19 18 19 19 18 19 19 21 21 20 18 18 19 21 22 22 21 22 22 20 19
5 7 8 10 10 5 4 4 5 7 8 10 6 1 3 6 8 11 14 17 18 19 19 20 21 20 20 20 20 18 17 17 19 19 22 23 24 24 23 24 23 22 22 21 22 24 22 20 17
2 7 7 9 7 10 2 5 6 10 10 9 6 3 2 4 8 10 14 16 17 19 21 22 23 23 23 23 23 21 20 21 22 22 22 22 22 24 24 25 25 25 23 21 21 21 17 14 11
6 3 5 7 7 10 5 4 2 15 14 11 10 7 3 2 6 9 13 15 16 17 17 19 21 21 22 23 23 24 24 23 23 23 23 22 23 23 23 23 23 23 23 22 19 16 16 15 15
4 8 4 5 5 9 10 2 7 9 13 11 6 3 2 5 7 9 12 13 13 15 17 20 20 20 22 23 23 22 21 20 20 20 20 20 22 22 21 21 21 22 21 20 20 17 13 12 13
2 4 5 6 8 4 7 5 4 7 10 7 4 1 5 6 8 10 11 12 14 17 19 19 20 21 21 21 22 21 20 19 19 18 18 18 19 17 17 19 22 19 18 17 18 17 16 12 9
Wind_Direction
321 259 241 234 248 239 104 77 34 10 30 40 11 273 64 60 16 29 82 139 138 147 155 155 158 156 160 164 164 165 170 170 168 165 161 158 159 162 165 164 160 153 140 133 128 127 131 133 134
251 242 238 277 262 263 96 81 38 46 54 113 138 198 199 77 50 93 125 142 146 146 150 155 164 158 157 161 163 164 165 172 172 168 164 165 166 167 170 169 165 159 146 136 127 121 120 126 138
195 254 272 280 277 289 345 10 20 123 144 133 149 308 3 54 63 86 113 139 143 146 150 161 166 164 155 158 160 162 165 167 171 172 172 169 169 169 170 171 169 166 159 155 152 144 144 142 149
248 205 227 248 293 56 324 350 343 146 148 64 36 119 121 43 49 113 135 142 144 146 151 168 166 167 160 155 156 155 160 163 167 167 168 169 168 172 172 176 177 179 181 188 197 178 170 186 219
247 248 248 238 219 19 19 12 37 142 93 102 356 96 94 70 79 123 137 144 147 148 152 157 166 169 163 159 159 159 161 165 166 169 169 169 169 172 175 182 188 193 196 198 202 211 210 212 225
253 269 244 210 178 227 28 11 269 193 119 126 134 171 87 99 116 131 139 143 146 147 150 160 168 172 166 164 166 165 163 166 169 171 173 171 170 175 180 185 197 199 200 205 208 215 228 233 236
260 259 273 252 154 194 5 0 348 265 145 94 88 74 81 90 121 135 142 144 147 147 150 157 162 173 173 169 177 173 169 172 172 176 180 181 181 187 193 197 205 212 220 220 223 234 246 241 234
269 267 253 234 212 131 20 358 351 309 74 111 295 66 98 116 138 142 144 145 145 147 150 157 165 174 174 174 187 184 180 178 180 186 190 194 201 209 216 221 238 233 234 234 237 243 244 245 236
244 251 251 229 228 135 246 343 65 123 144 83 92 72 105 132 145 147 151 147 146 145 153 161 167 174 175 167 192 193 193 189 191 200 210 211 211 223 231 231 238 250 245 243 245 251 252 249 249
224 235 244 26 30 246 196 300 16 193 146 125 147 108 111 141 157 162 176 148 161 158 170 171 178 173 170 169 185 182 194 188 200 209 212 226 239 235 227 233 250 245 245 245 250 252 252 259 253
219 248 225 177 212 298 254 174 18 48 83 54 40 25 34 5 227 175 165 166 159 161 194 192 181 179 186 173 176 179 188 197 208 214 218 235 251 253 257 248 254 250 255 248 243 248 246 243 249
239 239 271 199 177 227 229 245 223 229 0 357 355 15 53 354 44 342 155 79 128 190 206 194 190 190 171 166 177 194 191 201 199 221 221 239 258 258 265 266 262 245 248 253 246 244 268 251 249
230 196 231 243 229 244 252 233 251 261 263 281 86 345 36 43 74 26 359 339 225 227 200 202 195 195 177 164 201 207 202 206 208 226 229 232 261 276 277 269 266 271 269 268 267 262 246 226 221
201 246 235 239 241 232 241 245 230 254 267 249 228 94 59 56 42 40 13 11 311 244 219 197 192 193 206 160 196 230 260 223 247 257 235 243 257 263 270 271 266 277 279 275 265 251 227 231 231
187 224 218 226 235 243 254 249 233 273 277 260 242 88 69 68 47 49 36 11 9 342 213 192 175 175 215 163 219 260 275 278 265 267 267 251 250 262 261 266 273 274 270 264 237 204 188 203 220
215 236 213 166 207 198 223 249 22 340 275 238 228 68 59 54 52 46 52 42 37 37 73 128 151 165 199 270 286 297 295 290 260 264 266 267 275 272 269 269 273 268 262 244 216 187 174 197 252
205 211 224 142 208 268 235 3 5 335 250 260 51 67 63 60 51 44 46 50 46 55 51 66 82 74 6 322 306 298 295 300 305 286 285 284 277 270 266 264 261 260 241 228 212 200 197 210 227
167 197 193 176 148 236 83 51 24 9 143 92 75 75 72 64 60 51 49 53 52 49 49 56 45 38 87 104 19 42 95 342 330 323 309 301 295 290 270 264 249 228 228 222 211 203 204 210 217
289 273 258 209 92 92 89 70 49 47 77 81 90 88 76 63 58 58 52 53 51 49 44 49 43 53 42 36 50 28 8 359 343 343 343 329 305 286 277 268 250 224 226 226 212 209 214 223 230
240 236 234 230 173 133 113 85 64 49 41 82 96 89 86 81 66 59 50 47 49 47 40 35 46 33 43 36 25 18 354 3 359 359 342 339 316 300 275 263 255 241 241 225 218 218 232 248 249
226 252 259 274 166 143 138 106 100 76 71 82 82 83 72 71 67 58 56 49 47 44 35 37 38 36 34 34 27 19 12 356 4 345 333 332 323 308 290 273 260 257 242 246 234 237 245 265 252
195 138 235 184 203 215 210 235 111 102 83 73 77 68 70 67 64 54 46 42 38 35 30 32 31 33 30 27 26 24 13 2 349 340 330 326 317 307 295 284 275 268 261 263 255 258 257 256 272
56 232 270 245 248 279 188 249 122 144 108 83 74 80 73 60 47 44 38 38 35 29 24 23 22 23 20 19 16 10 0 347 333 330 327 321 319 312 301 291 282 275 272 270 270 267 260 262 271
138 221 220 241 259 246 229 259 157 171 168 128 68 59 45 43 41 34 29 25 23 18 16 14 12 13 10 7 2 359 346 334 329 323 316 309 309 304 298 305 298 285 274 271 268 263 260 268 272
231 246 266 245 226 250 38 274 52 116 123 134 119 53 25 18 17 19 18 12 11 10 7 5 5 3 0 356 350 344 339 333 322 315 309 314 307 302 300 308 303 304 299 285 274 274 273 267 264
315 319 284 286 290 322 119 272 93 129 128 130 133 96 4 12 11 9 8 6 3 1 2 1 0 355 352 349 342 335 330 322 314 313 311 306 301 297 296 295 295 296 299 302 290 279 273 275 277
139 255 14 289 240 266 128 110 165 164 154 148 159 182 286 9 7 11 3 4 356 357 359 358 352 347 346 339 334 331 329 324 319 315 310 306 303 300 297 296 295 293 295 303 302 290 286 279 280
283 25 250 216 276 274 168 258 280 185 179 173 172 185 144 22 12 7 1 359 355 354 352 349 344 341 337 334 333 331 329 327 324 320 317 313 310 307 306 302 299 296 291 288 288 290 279 267 265
235 233 233 300 303 294 295 73 15 174 178 177 156 129 53 12 5 360 356 355 350 351 348 345 342 338 338 337 334 329 327 324 323 320 317 312 308 307 304 303 299 295 292 282 284 279 274 272 270
348 313 277 271 264 243 302 304 8 131 140 156 139 140 33 6 1 352 353 357 357 352 349 346 344 340 338 335 330 326 323 323 323 324 323 316 307 304 307 328 324 294 289 289 274 281 284 285 297